Regional Weather Roundup
Issued by NWS

Home | Current Version | Previous Version | Graphics & Text | Print | Product List | Glossary On
Versions: 1 2 3 4 5 6 7 8 9 10 11 12 13 14 15 16 17 18 19 20 21 22 23 24 25 26 27 28 29 30 31 32 33 34 35 36 37 38 39 40 41 42 43 44 45 46 47 48 49 50
000
ASUS43 KFSD 280610
RWRSD

WEATHER ROUNDUP FOR SOUTH DAKOTA
NATIONAL WEATHER SERVICE SIOUX FALLS SD
100 AM CDT FRI JUL 28 2017

NOTE: "FAIR" INDICATES FEW OR NO CLOUDS BELOW 12,000 FEET WITH NO
SIGNIFICANT WEATHER AND/OR OBSTRUCTIONS TO VISIBILITY.


SDZ001>005-009-010-012>017-280700-
NORTHWEST AND NORTH CENTRAL SOUTH DAKOTA

CITY           SKY/WX    TMP DP  RH WIND       PRES   REMARKS
BUFFALO          N/A     63  56  78 E13       29.99S
FAITH            N/A     62  60  93 N5        30.06S
MOBRIDGE       CLOUDY    74  61  63 SE9       30.03R
$$

SDZ012>016-024>037-041>051-057-063-072>074-280700-
SOUTHWEST AND SOUTH CENTRAL SOUTH DAKOTA

CITY           SKY/WX    TMP DP  RH WIND       PRES   REMARKS
RAPID CTY ARPT CLEAR     60  55  83 SW9       30.06F
PIERRE         CLOUDY    70  57  63 SE8       30.03R
CUSTER         CLOUDY    54  50  86 CALM      30.17F
ELLSWORTH AFB  CLEAR     61  57  86 S12       30.05F
PHILIP         CLOUDY    68  62  81 S10       30.01R
PINE RIDGE     CLOUDY    64  60  87 E6        30.05F
SPEARFISH      FAIR      61  57  88 S6G13     30.08R
WINNER         FAIR      71  60  68 SE9       30.05F
$$

SDZ004>011-016>023-039-040-280700-
NORTHEAST SOUTH DAKOTA

CITY           SKY/WX    TMP DP  RH WIND       PRES   REMARKS
ABERDEEN       CLOUDY    67  62  84 SE6       30.06R
WATERTOWN      CLOUDY    68  60  75 E3        30.08R
BROOKINGS      PTCLDY    67  62  84 CALM      30.09R
SISSETON         N/A     63  60  90 W3        30.06S
$$

SDZ017-020-022-023-036>040-048>070-280700-
SOUTHEAST SOUTH DAKOTA

CITY           SKY/WX    TMP DP  RH WIND       PRES   REMARKS
SIOUX FALLS    CLEAR     66  63  90 CALM      30.08R
HURON          CLEAR     68  64  87 SE7       30.05S
CHAMBERLAIN    CLOUDY    69  64  82 S6        30.05S
MITCHELL       CLOUDY    69  65  86 SE5       30.06R
YANKTON        CLEAR     68  63  84 CALM      30.06S
$$

ABBREVIATIONS USED IN REMARKS
   TC - TEMPERATURE IN CELSIUS
  WCI - WIND CHILL INDEX
   HX - HEAT INDEX
  VSB - VISIBILITY





USA.gov is the U.S. government's official web portal to all federal, state and local government web resources and services.